Location: Fort Worth, Tx
(32.7431°N, 97.3695°W)
Time: 11:07:52
(UTC-04:00)

A-11 Canister half - Pass Details

Date: 17 August 2024
Orbit: 1524 x 1684 km, 47.3° (Epoch: 13 September)

Event Time Altitude Azimuth Distance (km) Brightness Sun altitude
Rises 05:36:15 0° 306° (NW) 4,940 11.5 -26.7°
Reaches altitude 10° 05:39:31 10° 310° (NW) 3,946 11.0 -26.1°
Maximum altitude 05:49:35 63° 31° (NNE) 1,814 9.5 -24.4°
Drops below altitude 10° 05:59:22 10° 112° (ESE) 3,847 11.5 -22.8°
Sets 06:02:30 0° 115° (ESE) 4,810 12.0 -22.2°
